Tracking 17844 objects as of 28-August-2016
HD Live streaming from Space Station
objects crossing your sky now

BREEZE-M DEB (TANK)

Track BREEZE-M DEB (TANK) now!


NORAD ID: 32374
Int'l Code: 2007-058B
Perigee: 470.0 km
Apogee: 34,575.2 km
Inclination: 46.4 °
Period: 612.6 minutes
Semi major axis: 23893 km
RCS: 5.0489 m2 (large)
Launch date: December 9, 2007
Source: Commonwealth of Independent States (former USSR) (CIS)
Launch site: TYURATAM MISSILE AND SPACE COMPLEX (TTMTR)

Note: This is SATELLITE DEBRIS
Your satellite tracking list
Your tracking list is empty





NASA's NSSDC Master Catalog

Two Line Element Set (TLE):
1 32374U 07058B   16240.42033948  .00000068  00000-0  23876-3 0  9998
2 32374  46.3828 268.3611 7136894 179.7341 181.1958  2.35061202 73889
Source of the keplerian elements: AFSPC

N2YO: 723